Torna al catalogo

STARLINK-30208

AttivoComunicazioniVLEO
NORAD 57415·PAYLOAD·🇺🇸 United States

Lanciato Jul 20, 2023 da Vandenberg Space Force Base

Loading…

Prossimi Passaggi (prossime 24 ore)

TLE

AggiornatoSource: CelesTrak SupGP

Epoca: Sep 14, 2026, 22:00 UTC

1 57415C 23102M   26257.91715278  .00031789  00000+0  11517-2 0  2573
2 57415  43.0028 259.8703 0001651 266.0112 341.2903 15.27554740    19

Traccia STARLINK-30208 in tempo reale con AllMySat

Download on the App Store